Back to catalog

COSMOS 397 DEB

AliveLEO
NORAD 5222·DEBRIS·🇷🇺 Russia

Launched Feb 25, 1971 from Baikonur Cosmodrome

Loading…

Next Passes (next 24 hours)

TLE

FreshSource: Space-Track

Epoch: Sep 14, 2026, 04:11 UTC

1 05222U 71015AW  26257.17443085  .00000994  00000-0  31915-3 0  9993
2 05222  65.7203 176.9183 0657696 256.8896  95.8007 13.62180205673355

Track COSMOS 397 DEB in real time with AllMySat

Download on the App Store